When you browse on this site, cookies collect data to enhance your experience and personalize the content and advertising you see.
Visit our Privacy Policy to learn more. By continuing to use the site, you agree to this use of cookies and data.
  • Em Portugal
  • Lista de países
  • Para 7 dias
  • Temperatura da água
  • Mapas de satélite
  • Mapa do tempo
  • Widgets de tempo
  • user-avatar
    Iniciar Sessão

    Previsão horária em Ameliowka

    Hoje, 16 Janeiro, Quarta-feira

    Tempo Temperatura Precipitação Vento Pressão Humidade
    00:00 -1°C° 0.5 mm 8 m/s 722 mmHg 91%
    01:00 -1°C° 0 mm 7 m/s 721 mmHg 92%
    02:00 -1°C° 0.3 mm 7 m/s 722 mmHg 92%
    03:00 -1°C° 0.3 mm 7 m/s 723 mmHg 92%
    04:00 -1°C° 0.3 mm 8 m/s 723 mmHg 92%
    05:00 -1°C° 0.1 mm 7 m/s 724 mmHg 93%
    06:00 -1°C° 0.1 mm 6 m/s 724 mmHg 94%
    07:00 0°C° 0.1 mm 5 m/s 725 mmHg 94%
    08:00 0°C° 0.5 mm 4 m/s 726 mmHg 96%
    09:00 0°C° 0.5 mm 4 m/s 726 mmHg 97%
    10:00 +1°C° 0.5 mm 3 m/s 726 mmHg 99%
    11:00 +1°C° 0.5 mm 3 m/s 727 mmHg 99%
    12:00 +1°C° 0.5 mm 3 m/s 727 mmHg 99%
    13:00 0°C° 0.5 mm 4 m/s 727 mmHg 99%
    14:00 0°C° 0.1 mm 4 m/s 727 mmHg 98%
    15:00 0°C° 0.1 mm 4 m/s 727 mmHg 97%
    16:00 0°C° 0.1 mm 4 m/s 728 mmHg 95%
    17:00 0°C° 0 mm 4 m/s 727 mmHg 95%
    18:00 0°C° 0 mm 4 m/s 727 mmHg 94%
    19:00 -1°C° 0 mm 4 m/s 727 mmHg 94%
    20:00 -1°C° 0 mm 4 m/s 727 mmHg 93%
    21:00 -1°C° 0 mm 4 m/s 727 mmHg 92%
    22:00 -2°C° 0 mm 4 m/s 727 mmHg 91%
    23:00 -2°C° 0 mm 4 m/s 727 mmHg 90%

    Amanhã, 17 Janeiro, Quinta-feira

    Tempo Temperatura Precipitação Vento Pressão Humidade
    00:00 -2°C° 0 mm 4 m/s 727 mmHg 89%
    01:00 -2°C° 0 mm 4 m/s 726 mmHg 89%
    02:00 -2°C° 0 mm 5 m/s 726 mmHg 86%
    03:00 -1°C° 0 mm 5 m/s 725 mmHg 83%
    04:00 -1°C° 0 mm 5 m/s 725 mmHg 80%
    05:00 -1°C° 0 mm 5 m/s 725 mmHg 77%
    06:00 -2°C° 0 mm 6 m/s 724 mmHg 74%
    07:00 -2°C° 0 mm 6 m/s 724 mmHg 71%
    08:00 -1°C° 0 mm 6 m/s 724 mmHg 72%
    09:00 -1°C° 0 mm 7 m/s 724 mmHg 72%
    10:00 -1°C° 0 mm 7 m/s 724 mmHg 73%
    11:00 0°C° 0 mm 7 m/s 724 mmHg 75%
    12:00 0°C° 0 mm 7 m/s 724 mmHg 78%
    13:00 +1°C° 0 mm 6 m/s 724 mmHg 80%
    14:00 +1°C° 0 mm 6 m/s 724 mmHg 81%
    15:00 -1°C° 0 mm 6 m/s 724 mmHg 82%
    16:00 0°C° 0 mm 5 m/s 724 mmHg 83%
    17:00 0°C° 0 mm 5 m/s 724 mmHg 84%
    18:00 -1°C° 0 mm 6 m/s 724 mmHg 84%
    19:00 -1°C° 0 mm 6 m/s 725 mmHg 85%
    20:00 -1°C° 0 mm 6 m/s 724 mmHg 85%
    21:00 -1°C° 0 mm 6 m/s 724 mmHg 85%
    22:00 +1°C° 0 mm 6 m/s 724 mmHg 85%
    23:00 -1°C° 0 mm 6 m/s 725 mmHg 85%

    Depois de amanhã, 18 Janeiro, Sexta-feira

    Tempo Temperatura Precipitação Vento Pressão Humidade
    00:00 -1°C° 0 mm 6 m/s 725 mmHg 85%
    01:00 -1°C° 0 mm 6 m/s 725 mmHg 84%
    02:00 -2°C° 0 mm 6 m/s 725 mmHg 83%
    03:00 -2°C° 0 mm 5 m/s 725 mmHg 81%
    04:00 -2°C° 0 mm 5 m/s 726 mmHg 79%
    05:00 -4°C° 0 mm 5 m/s 726 mmHg 78%
    06:00 -4°C° 0 mm 6 m/s 726 mmHg 77%
    07:00 -4°C° 0 mm 6 m/s 727 mmHg 76%
    08:00 -4°C° 0.1 mm 7 m/s 727 mmHg 76%
    09:00 -5°C° 0.1 mm 8 m/s 728 mmHg 75%
    10:00 -5°C° 0.1 mm 8 m/s 729 mmHg 75%
    11:00 -5°C° 0.1 mm 8 m/s 729 mmHg 74%
    12:00 -4°C° 0.1 mm 8 m/s 730 mmHg 74%
    13:00 -4°C° 0.1 mm 8 m/s 731 mmHg 73%
    14:00 -3°C° 0 mm 7 m/s 732 mmHg 75%
    15:00 -3°C° 0 mm 6 m/s 732 mmHg 77%
    16:00 -4°C° 0 mm 5 m/s 733 mmHg 80%
    17:00 -3°C° 0 mm 4 m/s 734 mmHg 80%
    18:00 -4°C° 0 mm 4 m/s 735 mmHg 81%
    19:00 -4°C° 0 mm 3 m/s 735 mmHg 81%
    20:00 -4°C° 0 mm 3 m/s 736 mmHg 83%
    21:00 -4°C° 0 mm 2 m/s 736 mmHg 84%
    22:00 -4°C° 0 mm 2 m/s 736 mmHg 85%
    23:00 -4°C° 0 mm 2 m/s 737 mmHg 86%

    19 Janeiro, Sábado

    Tempo Temperatura Precipitação Vento Pressão Humidade
    00:00 -4°C° 0 mm 2 m/s 737 mmHg 87%
    01:00 -4°C° 0 mm 2 m/s 737 mmHg 87%
    02:00 -4°C° 0 mm 2 m/s 737 mmHg 88%
    03:00 -4°C° 0 mm 2 m/s 737 mmHg 88%
    04:00 -4°C° 0 mm 2 m/s 737 mmHg 89%
    05:00 -4°C° 0 mm 2 m/s 737 mmHg 89%
    06:00 -4°C° 0 mm 2 m/s 737 mmHg 89%
    07:00 -4°C° 0 mm 2 m/s 737 mmHg 89%
    08:00 -4°C° 0 mm 2 m/s 737 mmHg 86%
    09:00 -3°C° 0 mm 2 m/s 737 mmHg 83%
    10:00 -3°C° 0 mm 2 m/s 737 mmHg 79%
    11:00 -2°C° 0 mm 2 m/s 737 mmHg 76%
    12:00 0°C° 0 mm 1 m/s 737 mmHg 73%
    13:00 +1°C° 0 mm 1 m/s 736 mmHg 70%
    14:00 0°C° 0 mm 1 m/s 736 mmHg 73%
    15:00 -1°C° 0 mm 1 m/s 736 mmHg 76%
    16:00 -1°C° 0 mm 1 m/s 736 mmHg 79%
    17:00 -1°C° 0 mm 1 m/s 736 mmHg 80%
    18:00 -2°C° 0 mm 1 m/s 736 mmHg 80%
    19:00 -2°C° 0 mm 1 m/s 736 mmHg 81%
    20:00 -3°C° 0 mm 0 m/s 736 mmHg 81%
    21:00 -3°C° 0 mm 0 m/s 736 mmHg 81%
    22:00 -3°C° 0 mm 0 m/s 736 mmHg 81%
    23:00 -3°C° 0 mm 0 m/s 736 mmHg 81%

    20 Janeiro, Domingo

    Tempo Temperatura Precipitação Vento Pressão Humidade
    00:00 -4°C° 0 mm 0 m/s 735 mmHg 81%
    01:00 -4°C° 0 mm 0 m/s 735 mmHg 81%
    02:00 -4°C° 0 mm 0 m/s 735 mmHg 81%
    03:00 -4°C° 0 mm 0 m/s 735 mmHg 81%
    04:00 -4°C° 0 mm 0 m/s 735 mmHg 80%
    05:00 -4°C° 0 mm 0 m/s 735 mmHg 80%
    06:00 -4°C° 0 mm 0 m/s 735 mmHg 79%
    07:00 -3°C° 0 mm 1 m/s 735 mmHg 78%
    08:00 -3°C° 0 mm 1 m/s 735 mmHg 76%
    09:00 -2°C° 0 mm 1 m/s 736 mmHg 74%
    10:00 -1°C° 0 mm 1 m/s 736 mmHg 72%
    11:00 -1°C° 0 mm 1 m/s 736 mmHg 71%
    12:00 0°C° 0 mm 1 m/s 736 mmHg 70%
    13:00 -2°C° 0 mm 2 m/s 735 mmHg 69%
    14:00 -2°C° 0 mm 2 m/s 735 mmHg 73%
    15:00 -3°C° 0 mm 2 m/s 735 mmHg 76%
    16:00 -3°C° 0 mm 2 m/s 735 mmHg 80%
    17:00 -3°C° 0 mm 2 m/s 736 mmHg 81%
    18:00 -4°C° 0 mm 2 m/s 736 mmHg 82%
    19:00 -5°C° 0 mm 3 m/s 737 mmHg 84%
    20:00 -5°C° 0 mm 3 m/s 737 mmHg 85%
    21:00 -5°C° 0 mm 3 m/s 737 mmHg 87%
    22:00 -5°C° 0 mm 3 m/s 738 mmHg 89%
    23:00 -5°C° 0 mm 3 m/s 738 mmHg 90%

    21 Janeiro, Segunda-feira

    Tempo Temperatura Precipitação Vento Pressão Humidade
    00:00 -5°C° 0 mm 3 m/s 738 mmHg 91%
    01:00 -6°C° 0 mm 3 m/s 739 mmHg 91%
    02:00 -5°C° 0 mm 2 m/s 739 mmHg 91%
    03:00 -5°C° 0 mm 2 m/s 739 mmHg 90%
    04:00 -6°C° 0 mm 2 m/s 740 mmHg 90%
    05:00 -6°C° 0 mm 2 m/s 740 mmHg 90%
    06:00 -6°C° 0 mm 2 m/s 740 mmHg 90%
    07:00 -6°C° 0 mm 2 m/s 741 mmHg 91%
    08:00 -6°C° 0 mm 2 m/s 741 mmHg 87%
    09:00 -5°C° 0 mm 2 m/s 742 mmHg 84%
    10:00 -5°C° 0 mm 3 m/s 742 mmHg 81%
    11:00 -5°C° 0 mm 3 m/s 743 mmHg 77%
    12:00 -4°C° 0 mm 3 m/s 743 mmHg 74%
    13:00 -4°C° 0 mm 3 m/s 743 mmHg 70%
    14:00 -3°C° 0 mm 2 m/s 743 mmHg 73%
    15:00 -4°C° 0 mm 2 m/s 743 mmHg 75%
    16:00 -4°C° 0 mm 2 m/s 743 mmHg 78%
    17:00 -3°C° 0 mm 1 m/s 743 mmHg 80%
    18:00 -3°C° 0 mm 1 m/s 743 mmHg 82%
    19:00 -3°C° 0 mm 1 m/s 744 mmHg 84%
    20:00 -3°C° 0 mm 1 m/s 744 mmHg 84%
    21:00 -4°C° 0 mm 1 m/s 744 mmHg 85%
    22:00 -4°C° 0 mm 1 m/s 744 mmHg 86%
    23:00 -4°C° 0 mm 1 m/s 744 mmHg 86%
    Mostrar mais